This demonstration page uses our WeatherBlox Daily Observations layout. Learn more.

Left ArrowRight Arrow

Hourly Observations for August 27, 2015

Temp ( °F °C ) Dew Point ( °F °C ) Humidity (%) Winds ( mph kmh ) Pressure ( in mb ) Visibility ( mi km ) Precip ( " mm )
12:53 am 00:53 Cloudy 58 14.4 56 13.3 93 93 N N/A 30.15 1021 10 16 N/A
1:53 am 01:53 Cloudy 60 15.6 58 14.4 93 93 N N/A 30.16 1021 10 16 N/A
2:53 am 02:53 Cloudy 62 16.7 59 15 90 90 N N/A 30.15 1021 10 16 N/A
3:53 am 03:53 Cloudy 60 15.6 58 14.4 93 93 N N/A 30.15 1021 10 16 N/A
4:53 am 04:53 Cloudy 60 15.6 59 15 96 96 N N/A 30.15 1021 9 14 N/A
5:53 am 05:53 Cloudy 59 15 58 14.4 96 96 N N/A 30.15 1021 8 13 N/A
6:53 am 06:53 Mostly Cloudy 58 14.4 57 13.9 97 97 N N/A 30.17 1022 9 14 N/A
7:53 am 07:53 Cloudy 61 16.1 59 15 93 93 N N/A 30.18 1022 7 11 N/A
8:53 am 08:53 Cloudy 64 17.8 59 15 84 84 N N/A 30.19 1022 10 16 N/A
9:53 am 09:53 Cloudy 67 19.4 59 15 76 76 N N/A 30.20 1023 10 16 N/A
10:53 am 10:53 Cloudy 70 21.1 59 15 68 68 N 3 6 30.20 1023 10 16 N/A
11:53 am 11:53 Cloudy 72 22.2 57 13.9 59 59 VRB 3 6 30.21 1023 10 16 N/A
12:53 pm 12:53 Mostly Cloudy 73 22.8 57 13.9 57 57 VRB 5 7 30.19 1023 10 16 N/A
1:53 pm 13:53 Mostly Cloudy 73 22.8 55 12.8 53 53 N N/A 30.16 1021 10 16 N/A
2:53 pm 14:53 Mostly Cloudy 77 25 56 13.3 48 48 E 8 13 30.14 1021 10 16 N/A
3:53 pm 15:53 Mostly Cloudy 78 25.6 56 13.3 47 47 N N/A 30.14 1021 10 16 N/A
4:53 pm 16:53 Cloudy 76 24.4 53 11.7 45 45 N N/A 30.14 1021 10 16 N/A
5:53 pm 17:53 Mostly Cloudy 76 24.4 54 12.2 47 47 N N/A 30.14 1021 10 16 N/A
6:53 pm 18:53 Mostly Sunny 75 23.9 57 13.9 54 54 NE 5 7 30.14 1021 10 16 N/A
7:53 pm 19:53 Sunny 66 18.9 61 16.1 84 84 N N/A 30.13 1020 10 16 N/A
8:53 pm 20:53 Clear 61 16.1 57 13.9 87 87 N N/A 30.15 1021 10 16 N/A
9:53 pm 21:53 Clear 59 15 56 13.3 90 90 N N/A 30.16 1021 10 16 N/A
10:53 pm 22:53 Clear 57 13.9 56 13.3 96 96 N N/A 30.16 1021 10 16 N/A
11:53 pm 23:53 Clear 56 13.3 54 12.2 93 93 N N/A 30.15 1021 9 14 N/A

Powered by AerisWeather